Location: Balsareny
(41.8670°N, 1.8830°E)
Time: 11:17:32
(UTC+01:00)

Envisat - Pass Details

Date: 06 December 2021
Orbit: 764 x 766 km, 98.2° (Epoch: 15 January)

Event Time Altitude Azimuth Distance (km) Brightness Sun altitude
Rises 06:57:39 0° 1° (N) 3,241 6.1 -12.3°
Reaches altitude 10° 07:00:18 10° 348° (NNW) 2,310 5.2 -11.8°
Maximum altitude 07:04:24 25° 294° (WNW) 1,498 3.9 -11.1°
Drops below altitude 10° 07:08:29 10° 240° (WSW) 2,297 5.1 -10.4°
Sets 07:11:07 0° 228° (SW) 3,218 6.0 -10.0°
